GW2682 Weather Reports


time (UTC)temp
C
wind
direction
speed
KPH
gust
KPH
rain 1hr
cm
rain 24hr
cm
rain mn
cm
humidity
%
barometer
mb
20260504130516 12 239 17.7 32.2 0.00 0.00 0.00 47 1011.1
20260504110517 7 226 4.8 8.0 0.00 0.00 0.00 60 1011.4
20260504100517 5 248 1.6 8.0 0.00 0.00 0.00 64 1011.2
20260504081518 6 236 8.0 11.3 0.00 0.00 0.00 59 1011.4
20260504081017 7 211 6.4 12.9 0.00 0.00 0.00 59 1011.5
20260504080518 7 228 6.4 12.9 0.00 0.00 0.00 58 1011.4
20260504050529 7 267 11.3 19.3 0.00 0.00 0.00 55 1011.1
20260504050018 7 238 9.7 19.3 0.00 0.00 0.00 55 1011.1
20260504045519 8 225 11.3 19.3 0.00 0.00 0.00 55 1011.1
20260504045019 7 224 11.3 25.7 0.00 0.00 0.00 55 1011.0
20260504044519 7 236 12.9 25.7 0.00 0.00 0.00 55 1011.0
20260504044020 7 250 11.3 20.9 0.00 0.00 0.00 55 1011.1
20260504043520 7 252 11.3 19.3 0.00 0.00 0.00 55 1011.0
20260504043020 7 257 11.3 20.9 0.00 0.00 0.00 55 1011.0
20260504042519 8 235 9.7 24.1 0.00 0.00 0.00 55 1010.9
20260504042019 8 208 16.1 24.1 0.00 0.00 0.00 54 1010.9
20260504041520 8 224 12.9 22.5 0.00 0.00 0.00 54 1010.9
20260504041031 8 255 11.3 22.5 0.00 0.00 0.00 54 1010.7
20260504040520 8 224 12.9 24.1 0.00 0.00 0.00 54 1010.9
20260504040019 8 240 11.3 24.1 0.00 0.00 0.00 54 1010.7
20260504035520 8 245 11.3 19.3 0.00 0.00 0.00 54 1010.7
20260504035019 8 242 11.3 22.5 0.00 0.00 0.00 54 1010.6
20260504034530 8 231 12.9 24.1 0.00 0.00 0.00 53 1010.6
20260504034031 8 226 12.9 24.1 0.00 0.00 0.00 53 1010.6
20260504033531 8 259 14.5 19.3 0.00 0.00 0.00 53 1010.6
20260504033021 8 226 9.7 22.5 0.00 0.00 0.00 54 1010.5
20260504032532 8 231 9.7 22.5 0.00 0.00 0.00 53 1010.7
20260504032020 8 253 9.7 17.7 0.00 0.00 0.00 54 1010.6
20260504031520 7 235 12.9 17.7 0.00 0.00 0.00 53 1010.6
20260504031020 7 245 9.7 16.1 0.00 0.00 0.00 54 1010.7
20260504030520 7 219 9.7 14.5 0.00 0.00 0.00 53 1010.7
20260504030020 7 236 9.7 14.5 0.00 0.00 0.00 53 1010.6
20260504025520 7 227 9.7 14.5 0.00 0.00 0.00 53 1010.7
20260504025020 7 266 9.7 14.5 0.00 0.00 0.00 53 1010.7
20260504024531 7 256 8.0 12.9 0.00 0.00 0.00 54 1010.7
20260504024020 7 253 9.7 12.9 0.00 0.00 0.00 53 1010.7
20260504023520 7 236 8.0 11.3 0.00 0.00 0.00 54 1010.7
20260504023037 7 239 8.0 11.3 0.00 0.00 0.00 54 1010.7
20260504022532 7 255 4.8 12.9 0.00 0.00 0.00 53 1010.7
20260504022032 7 253 8.0 12.9 0.00 0.00 0.00 53 1010.9
20260504021531 7 245 6.4 11.3 0.00 0.00 0.00 52 1010.9
20260504021020 7 235 6.4 11.3 0.00 0.00 0.00 52 1010.9
20260504020520 7 250 4.8 9.7 0.00 0.00 0.00 52 1010.9
20260504020023 7 225 6.4 12.9 0.00 0.00 0.00 52 1010.9
20260504015520 8 236 6.4 12.9 0.00 0.00 0.00 51 1010.7
20260504015020 8 234 6.4 11.3 0.00 0.00 0.00 50 1010.7
20260504014521 8 240 8.0 12.9 0.00 0.00 0.00 50 1010.7
20260504014021 8 214 8.0 14.5 0.00 0.00 0.00 50 1010.6
20260504013542 8 252 9.7 14.5 0.00 0.00 0.00 49 1010.6
20260504013023 8 244 4.8 12.9 0.00 0.00 0.00 50 1010.6
20260504012512 8 243 6.4 14.5 0.00 0.00 0.00 49 1010.5
20260504012024 8 202 8.0 14.5 0.00 0.00 0.00 49 1010.4
20260504011513 8 218 8.0 11.3 0.00 0.00 0.00 49 1010.3
20260504011013 8 234 6.4 11.3 0.00 0.00 0.00 50 1010.3
20260504010523 8 221 8.0 14.5 0.00 0.00 0.00 49 1010.2
20260504010013 8 246 6.4 14.5 0.00 0.00 0.00 49 1010.3
20260504005512 8 238 6.4 14.5 0.00 0.00 0.00 50 1010.2
20260504005023 8 224 6.4 14.5 0.00 0.00 0.00 49 1010.3
20260504004512 8 240 4.8 9.7 0.00 0.00 0.00 50 1010.3
20260504004012 8 234 6.4 9.7 0.00 0.00 0.00 49 1010.2
20260504003512 8 235 6.4 9.7 0.00 0.00 0.00 49 1010.2
20260504003013 8 236 4.8 9.7 0.00 0.00 0.00 49 1010.2
20260504002512 8 236 4.8 8.0 0.00 0.00 0.00 48 1010.1
20260504002016 9 231 4.8 11.3 0.00 0.00 0.00 48 1010.0
20260504001513 9 214 4.8 11.3 0.00 0.00 0.00 47 1010.0
20260504001013 9 234 3.2 9.7 0.00 0.00 0.00 47 1010.0
20260504000512 9 224 4.8 9.7 0.00 0.00 0.00 46 1009.9
20260504000013 10 198 3.2 9.7 0.00 0.00 0.00 46 1009.9
20260503235514 10 268 4.8 11.3 0.00 0.00 0.00 46 1009.9
20260503235012 10 216 1.6 17.7 0.00 0.00 0.00 46 1009.9
20260503234523 10 243 3.2 17.7 0.00 0.00 0.00 45 1009.9
20260503234023 10 228 3.2 16.1 0.00 0.00 0.00 46 1009.8
20260503233513 10 164 6.4 16.1 0.00 0.00 0.00 46 1009.8
20260503233013 10 256 4.8 9.7 0.00 0.00 0.00 46 1009.8
20260503232513 10 210 4.8 9.7 0.00 0.00 0.00 45 1009.7
20260503232013 10 209 4.8 9.7 0.00 0.00 0.00 44 1009.7
20260503231513 11 243 4.8 17.7 0.00 0.00 0.00 43 1009.7
20260503231013 11 249 9.7 17.7 0.00 0.00 0.00 43 1009.7
20260503230513 10 204 6.4 19.3 0.00 0.00 0.00 44 1009.8
20260503230024 10 234 8.0 19.3 0.00 0.00 0.00 45 1009.8
20260503225513 11 250 6.4 14.5 0.00 0.00 0.00 45 1009.7
20260503225013 11 43 4.8 12.9 0.00 0.00 0.00 43 1009.7
20260503224513 11 269 8.0 17.7 0.00 0.00 0.00 43 1009.7
20260503224013 11 287 6.4 24.1 0.00 0.00 0.00 43 1009.6
20260503223514 11 220 11.3 24.1 0.00 0.00 0.00 42 1009.7
20260503223012 11 278 6.4 19.3 0.00 0.00 0.00 43 1009.6
20260503222524 11 245 8.0 20.9 0.00 0.00 0.00 42 1009.6
20260503222015 11 183 9.7 20.9 0.00 0.00 0.00 43 1009.6
20260503221513 11 212 6.4 25.7 0.00 0.00 0.00 42 1009.6
20260503221014 11 258 11.3 25.7 0.00 0.00 0.00 42 1009.6
20260503220513 11 254 6.4 20.9 0.00 0.00 0.00 41 1009.6
20260503220014 11 326 8.0 29.0 0.00 0.00 0.00 42 1009.7
20260503215525 11 263 11.3 29.0 0.00 0.00 0.00 41 1009.6
20260503215013 11 236 12.9 20.9 0.00 0.00 0.00 41 1009.6
20260503214513 11 271 8.0 19.3 0.00 0.00 0.00 42 1009.6
20260503214013 11 323 9.7 20.9 0.00 0.00 0.00 41 1009.5
20260503213513 11 285 11.3 25.7 0.00 0.00 0.00 42 1009.5
20260503213013 11 295 9.7 25.7 0.00 0.00 0.00 39 1009.5
20260503212514 11 297 8.0 22.5 0.00 0.00 0.00 40 1009.5
20260503212013 11 178 11.3 24.1 0.00 0.00 0.00 39 1009.5
20260503211513 11 243 16.1 33.8 0.00 0.00 0.00 38 1009.3
20260503211013 12 229 17.7 33.8 0.00 0.00 0.00 38 1009.4
20260503210513 12 292 11.3 29.0 0.00 0.00 0.00 39 1009.2
20260503210014 12 239 11.3 33.8 0.00 0.00 0.00 38 1009.2
20260503205514 12 226 12.9 33.8 0.00 0.00 0.00 38 1009.3
20260503205013 12 295 8.0 19.3 0.00 0.00 0.00 38 1009.2
20260503204513 12 217 9.7 17.7 0.00 0.00 0.00 36 1009.2
20260503204024 11 226 6.4 17.7 0.00 0.00 0.00 37 1009.2
20260503203524 11 287 4.8 22.5 0.00 0.00 0.00 37 1009.2
20260503203013 12 320 9.7 22.5 0.00 0.00 0.00 35 1009.3
20260503202514 11 324 8.0 17.7 0.00 0.00 0.00 38 1009.2
20260503202024 11 283 8.0 27.4 0.00 0.00 0.00 37 1009.2
20260503201525 11 26 6.4 27.4 0.00 0.00 0.00 39 1009.3
20260503201024 11 275 14.5 30.6 0.00 0.00 0.00 37 1009.4
20260503200513 11 247 9.7 25.7 0.00 0.00 0.00 38 1009.5
20260503200013 11 33 8.0 29.0 0.00 0.00 0.00 37 1009.5
20260503195537 11 307 9.7 29.0 0.00 0.00 0.00 37 1009.5
20260503195014 11 295 8.0 30.6 0.00 0.00 0.00 37 1009.6
20260503194514 11 242 6.4 30.6 0.00 0.00 0.00 39 1009.5
20260503194014 11 252 14.5 30.6 0.00 0.00 0.00 38 1009.6
20260503193525 10 270 9.7 27.4 0.00 0.00 0.00 39 1009.7
20260503193015 10 286 8.0 27.4 0.00 0.00 0.00 40 1009.8
20260503192526 10 270 12.9 43.5 0.00 0.00 0.00 40 1009.9
20260503192015 10 229 12.9 33.8 0.00 0.00 0.00 39 1009.6
20260503191537 10 243 9.7 20.9 0.00 0.00 0.00 39 1010.0
20260503191015 10 276 11.3 20.9 0.00 0.00 0.00 41 1010.0
20260503190515 10 216 9.7 25.7 0.00 0.00 0.00 42 1010.2
20260503190013 10 256 9.7 25.7 0.00 0.00 0.00 42 1010.3
20260503185514 10 273 14.5 29.0 0.00 0.00 0.00 41 1010.4
20260503185016 10 205 16.1 33.8 0.00 0.00 0.00 41 1010.3
20260503184515 10 247 14.5 33.8 0.00 0.00 0.00 41 1010.3
20260503184015 9 246 11.3 29.0 0.00 0.00 0.00 42 1010.5
20260503183515 9 246 14.5 29.0 0.00 0.00 0.00 42 1010.5
20260503183014 9 206 9.7 27.4 0.00 0.00 0.00 43 1010.4
20260503182516 9 281 11.3 30.6 0.00 0.00 0.00 42 1010.6
20260503182015 9 244 9.7 30.6 0.00 0.00 0.00 43 1010.5
20260503181516 9 271 9.7 29.0 0.00 0.00 0.00 42 1010.5
20260503181015 8 250 9.7 27.4 0.00 0.00 0.00 45 1010.5
20260503180515 8 298 9.7 27.4 0.00 0.00 0.00 44 1010.6
20260503180016 8 299 8.0 25.7 0.00 0.00 0.00 42 1010.7
20260503175515 8 283 8.0 32.2 0.00 0.00 0.00 42 1010.9
20260503175015 8 259 9.7 27.4 0.00 0.00 0.00 43 1010.9
20260503174526 8 269 8.0 24.1 0.00 0.00 0.00 43 1010.7
20260503174015 8 267 11.3 24.1 0.00 0.00 0.00 45 1011.0
20260503173515 8 263 16.1 27.4 0.00 0.00 0.00 45 1011.0
20260503173015 7 104 6.4 19.3 0.00 0.00 0.00 45 1010.9
20260503172517 7 231 9.7 20.9 0.00 0.00 0.00 44 1011.0
20260503172015 7 214 8.0 17.7 0.00 0.00 0.00 45 1011.0
20260503171516 7 332 4.8 24.1 0.00 0.00 0.00 44 1011.0
20260503171014 7 285 14.5 25.7 0.00 0.00 0.00 43 1011.0
20260503170516 7 260 9.7 25.7 0.00 0.00 0.00 43 1011.0
20260503150516 5 203 12.9 24.1 0.00 0.00 0.00 51 1011.3